Location: Bédeille
(43.0872°N, 1.1041°E)
Time: 02:38:25
(UTC+00:00)

Cosmos 1892 Rocket - Pass Details

Date: 03 February 2023
Orbit: 605 x 631 km, 82.5° (Epoch: 27 March)

Event Time Altitude Azimuth Distance (km) Brightness Sun altitude
Rises 18:40:02 0° 189° (S) 2,897 7.2 -16.7°
Reaches altitude 10° 18:42:16 10° 190° (S) 1,992 6.4 -17.1°
Maximum altitude 18:46:41 82° 278° (W) 634 3.6 -17.9°
Drops below altitude 10° 18:51:06 10° 6° (N) 1,991 6.0 -18.7°
Sets 18:53:20 0° 8° (N) 2,897 6.9 -19.1°
